#timestamp,LO_Frequency,Hit,StdDev 
1507705215.0,286047002.5,N
1507705215.9,286047002.5,N
1507705235.8,286047000.1,N
1507705255.6,286046999.2,N
1507705275.4,286046999.3,N
1507705295.3,286047004.9,N
1507705315.1,286047004.9,N
1507705316.0,286047004.9,N
1507705335.8,286047005.6,N
1507705355.7,286047001.2,N
1507705375.5,286047001.2,N
1507705395.3,286047000.2,N
1507705415.2,286046998.1,N
1507705435.9,286046999.3,N
1507705455.7,286046998.4,N
1507705475.6,286047005.9,N
1507705495.4,286047003.7,N
1507705515.2,286047003.5,N
1507705535.0,286047004.2,N
1507705535.9,286047004.2,N
1507705555.8,286046999.6,N
1507705575.6,286047001.7,N
1507705595.4,286046999.2,N
1507705615.3,286047000.8,N
1507705635.1,286047004.4,N
1507705655.8,286047000.2,N
1507705675.7,286047000.6,N
1507705695.5,286046997.5,N
1507705715.3,286046995.8,N
1507705735.2,286046998.3,N
1507705755.9,286047002.7,N
1507705775.7,286047000.4,N
1507705795.6,286047000.2,N
1507705815.4,286047002.7,N
1507705835.2,286047005.7,N
1507705855.0,286047004.4,N
1507705856.0,286047004.4,N
1507705875.8,286047001.4,N
1507705895.6,286047004.4,N
1507705915.4,286047001.4,N
1507705935.3,286047005.5,N
1507705955.1,286047004.4,N
1507705975.8,286047001.0,N
1507705995.7,286047002.8,N
1507706015.5,286047001.6,N
1507706035.3,286047005.0,N
1507706055.2,286047004.3,N
1507706075.9,286047003.2,N
1507706095.7,286047002.6,N
1507706115.6,286047004.4,N
1507706135.4,286046998.4,N
1507706155.2,286047001.4,N
1507706175.1,286047001.5,N
1507706176.0,286047001.5,N
1507706195.8,286046999.2,N
1507706215.6,286046996.8,N
1507706235.4,286046997.5,N
1507706255.3,286046997.9,N
1507706275.1,286047000.3,N
1507706295.8,286046996.9,N
1507706315.7,286046997.0,N
1507706335.5,286046995.2,N
1507706355.3,286046996.1,N
1507706375.2,286046997.5,N
1507706395.9,286046999.6,N
1507706415.7,286046996.7,N
1507706435.6,286046998.3,N
1507706455.4,286046994.9,N
1507706475.2,286046995.0,N
1507706495.1,286046999.2,N
1507706496.0,286046999.2,N
1507706515.8,286046993.0,N
1507706535.6,286046987.0,Y
1507706555.5,286046987.3,P
1507706575.3,286046994.1,N
1507706595.1,286046994.5,N
1507706615.9,286046985.4,Y
1507706635.7,286046991.4,P
1507706655.5,286046994.8,P
1507706675.4,286046989.8,P
1507706695.2,286046985.6,Y
1507706715.0,286046995.0,P
1507706715.9,286046995.0,P
1507706735.8,286047000.4,N
1507706755.6,286046998.6,N
1507706775.4,286047000.1,N
1507706795.3,286047007.0,N
1507706815.1,286047008.8,N
1507706816.0,286047008.8,N
1507706835.8,286047010.2,N
1507706855.7,286047013.7,N
1507706875.5,286047007.6,N
1507706895.3,286047008.7,N
1507706915.1,286047008.1,N
1507706935.9,286047006.4,N
1507706955.7,286047006.9,N
1507706975.5,286047005.1,N
1507706995.4,286047005.1,N
1507707015.2,286047001.4,N
1507707035.0,286047005.2,N
1507707035.9,286047005.2,N
1507707055.8,286047003.2,N
1507707075.6,286047001.8,N
1507707095.4,286047002.8,N
1507707115.3,286047001.9,N
1507707135.1,286047003.0,N
1507707136.0,286047003.0,N
1507707155.8,286047009.9,N
1507707175.7,286047006.7,N
1507707195.5,286047001.7,N
1507707215.3,286046996.7,N
1507707235.1,286046997.4,N
1507707255.9,286046995.6,N
1507707275.7,286046993.9,N
1507707295.5,286047000.7,N
1507707315.7,286046992.2,N
1507707335.5,286046989.6,N
1507707355.4,286046989.2,N
1507707375.2,286046987.4,N
1507707395.0,286046983.0,N
1507707395.9,286046983.0,N
1507707415.8,286046977.1,Y
1507707435.6,286046976.6,P
1507707455.4,286046971.4,N
1507707475.3,286046979.9,N
1507707495.1,286046982.9,N
1507707515.8,286046982.1,N
1507707535.7,286046984.1,N
1507707555.5,286046986.7,N
1507707575.3,286046989.3,N
1507707595.2,286046989.4,N
1507707615.9,286046985.6,N
1507707635.7,286046985.4,N
1507707655.6,286046990.0,N
1507707675.4,286046991.1,N
1507707695.2,286046989.7,N
1507707715.0,286046987.5,N
1507707716.0,286046987.5,N
1507707735.8,286046982.0,N
1507707755.6,286046976.6,Y
1507707775.5,286046995.8,P
1507707795.3,286046995.1,N
1507707815.1,286046999.1,N
1507707835.8,286046996.0,N
1507707855.7,286046988.8,N
1507707875.5,286046984.8,Y
1507707895.3,286046986.8,P
1507707915.2,286046980.6,P
1507707935.0,286046992.8,N
1507707935.9,286046992.8,N
1507707955.7,286046994.9,N
1507707975.6,286046997.0,N
1507707995.4,286047000.2,N
1507708015.2,286046999.7,N
1507708035.1,286047002.8,N
1507708036.0,286047002.8,N
1507708055.8,286046998.4,N
1507708075.6,286047002.6,N
1507708095.5,286047000.4,N
1507708115.3,286046996.6,N
1507708135.1,286047004.0,N
1507708155.9,286047003.1,N
1507708175.7,286047001.8,N
1507708195.5,286047004.1,N
1507708215.4,286047007.3,N
1507708235.2,286047006.0,N
1507708255.0,286047005.2,N
1507708255.9,286047005.2,N
1507708275.8,286047007.3,N
1507708295.6,286047003.5,N
1507708315.4,286047004.2,N
1507708335.2,286047000.8,N
1507708355.1,286046994.2,N
1507708356.0,286046994.2,N
1507708375.8,286046995.1,N
1507708395.6,286046998.1,N
1507708415.5,286046996.9,N
1507708435.3,286046997.2,N
1507708455.1,286046998.2,N
1507708475.9,286047000.8,N
1507708495.7,286047001.2,N
1507708515.5,286047000.8,N
1507708535.4,286047001.6,N
1507708555.2,286046995.5,N
1507708575.0,286046993.0,N
1507708575.9,286046993.0,N
1507708595.8,286046992.1,N
1507708615.6,286046994.4,N
1507708635.4,286046996.2,N
1507708655.2,286046994.0,N
1507708675.1,286046997.8,N
1507708676.0,286046997.8,N
1507708695.8,286047002.2,N
1507708715.6,286047002.7,N
1507708735.5,286047001.2,N
1507708755.3,286046992.0,N
1507708775.1,286046992.3,N
1507708795.9,286046996.3,N
